Oelwein, IA

12:18 PM CST on November 17, 2019 (GMT -0600)
Oelwein Municipal

Weather History for KOLZ - October, 2019

Change the Weather History Date:

Sunday, October 13, 2019

  Actual Average Record
Temperature  
Mean Temperature 38 °F -  
Max Temperature 44 °F 62 °F 89 °F (1975)
Min Temperature 32 °F 40 °F 27 °F (1983)
Degree Days  
Heating Degree Days 26    
Moisture  
Dew Point 34 °F    
Average Humidity 85    
Maximum Humidity 100    
Minimum Humidity 66    
Precipitation  
Precipitation 0.00 in - - ()
Sea Level Pressure  
Sea Level Pressure 29.86 in    
Wind  
Wind Speed 12 mph (West)    
Max Wind Speed 21 mph    
Max Gust Speed 28 mph    
Visibility 10 miles    
Events      
Averages and records for this station are not official NWS values.
T = Trace of Precipitation, MM = Missing Value Source: NWS Daily Summary

Daily Weather History Graph

Daily Weather History Graph

Search for Another Location

Airport or City:

Astronomy

Oct. 13, 2019 Rise Set
Actual Time 7:18 AM CDT 6:29 PM CDT
Civil Twilight 6:50 AM CDT 6:57 PM CDT
Nautical Twilight 6:17 AM CDT 7:30 PM CDT
Astronomical Twilight 5:44 AM CDT 8:02 PM CDT
Moon 6:52 PM CDT (10/13) 6:51 AM CDT (10/13)
Length of Visible Light 12h 07m
Length of Day
11h 10m
Full, 100% of the Moon is Illuminated
Oct 13
Full
Oct 13
Full
Oct 21
Last Quarter
Oct 27
New
Nov 4
First Quarter

Hourly Weather History & Observations

Time (CDT) Temp. Windchill Dew Point Humidity Pressure Visibility Wind Dir Wind Speed Gust Speed Precip Events Conditions
12:55 AM 35.6 °F 28.6 °F 33.8 °F 93% 29.78 in 10.0 mi WSW 9.2 mph 16.1 mph N/A   Overcast
1:15 AM 35.6 °F 26.6 °F 33.8 °F 93% 29.79 in 10.0 mi WSW 13.8 mph - N/A   Mostly Cloudy
1:35 AM 35.6 °F 26.6 °F 33.8 °F 93% 29.79 in 10.0 mi WSW 13.8 mph 19.6 mph N/A   Overcast
1:55 AM 35.6 °F 27.1 °F 33.8 °F 93% 29.79 in 10.0 mi WSW 12.7 mph 19.6 mph N/A   Overcast
2:15 AM 35.6 °F 27.5 °F 33.8 °F 93% 29.79 in 10.0 mi West 11.5 mph - N/A   Overcast
2:35 AM 35.6 °F 27.5 °F 33.8 °F 93% 29.79 in 10.0 mi West 11.5 mph - N/A   Overcast
2:55 AM 35.6 °F 26.6 °F 33.8 °F 93% 29.79 in 10.0 mi West 13.8 mph - N/A   Overcast
3:15 AM 35.6 °F 27.5 °F 33.8 °F 93% 29.78 in 10.0 mi WSW 11.5 mph 18.4 mph N/A   Overcast
3:35 AM 35.6 °F 27.1 °F 33.8 °F 93% 29.78 in 10.0 mi WSW 12.7 mph - N/A   Overcast
3:55 AM 35.6 °F 28.0 °F 33.8 °F 93% 29.78 in 10.0 mi WSW 10.4 mph 16.1 mph N/A   Overcast
4:15 AM 35.6 °F 27.5 °F 33.8 °F 93% 29.79 in 10.0 mi West 11.5 mph - N/A   Overcast
4:35 AM 35.6 °F 27.5 °F 33.8 °F 93% 29.79 in 10.0 mi WSW 11.5 mph - N/A   Overcast
4:55 AM 35.6 °F 27.5 °F 33.8 °F 93% 29.79 in 10.0 mi West 11.5 mph - N/A   Overcast
5:15 AM 35.6 °F 27.5 °F 33.8 °F 93% 29.79 in 10.0 mi West 11.5 mph - N/A   Overcast
5:35 AM 35.6 °F 27.1 °F 33.8 °F 93% 29.79 in 10.0 mi WSW 12.7 mph - N/A   Overcast
5:55 AM 35.6 °F 26.6 °F 33.8 °F 93% 29.79 in 10.0 mi West 13.8 mph - N/A   Overcast
6:15 AM 35.6 °F 27.1 °F 32.0 °F 87% 29.80 in 10.0 mi West 12.7 mph - N/A   Overcast
6:35 AM 35.6 °F 28.0 °F 33.8 °F 93% 29.80 in 10.0 mi West 10.4 mph - N/A   Overcast
6:55 AM 35.6 °F 28.0 °F 33.8 °F 93% 29.80 in 10.0 mi West 10.4 mph - N/A   Overcast
7:15 AM 35.6 °F 28.0 °F 33.8 °F 93% 29.80 in 10.0 mi WSW 10.4 mph - N/A   Overcast
7:35 AM 35.6 °F 27.1 °F 33.8 °F 93% 29.80 in 10.0 mi WSW 12.7 mph - N/A   Overcast
7:55 AM 35.6 °F 26.6 °F 33.8 °F 93% 29.81 in 10.0 mi West 13.8 mph - N/A   Overcast
8:15 AM 35.6 °F 26.2 °F 33.8 °F 93% 29.81 in 10.0 mi West 15.0 mph - N/A   Overcast
8:35 AM 35.6 °F 25.9 °F 33.8 °F 93% 29.82 in 10.0 mi West 16.1 mph - N/A   Overcast
8:55 AM 37.4 °F 28.2 °F 33.8 °F 87% 29.82 in 10.0 mi West 16.1 mph - N/A   Overcast
9:15 AM 37.4 °F 28.2 °F 33.8 °F 87% 29.82 in 10.0 mi West 16.1 mph - N/A   Overcast
9:35 AM 37.4 °F 29.3 °F 33.8 °F 87% 29.82 in 10.0 mi West 12.7 mph 20.7 mph N/A   Overcast
9:55 AM 37.4 °F 28.2 °F 33.8 °F 87% 29.82 in 10.0 mi West 16.1 mph - N/A   Overcast
10:15 AM 37.4 °F 28.2 °F 33.8 °F 87% 29.83 in 10.0 mi West 16.1 mph - N/A   Overcast
10:35 AM 37.4 °F 28.5 °F 33.8 °F 87% 29.83 in 10.0 mi West 15.0 mph 21.9 mph N/A   Overcast
10:55 AM 37.4 °F 28.9 °F 33.8 °F 87% 29.83 in 10.0 mi West 13.8 mph - N/A   Overcast
11:35 AM 39.2 °F 30.5 °F 33.8 °F 81% 29.84 in 10.0 mi West 16.1 mph - N/A   Overcast
11:55 AM 39.2 °F 29.3 °F 33.8 °F 81% 29.84 in 10.0 mi West 20.7 mph 27.6 mph N/A   Overcast
12:15 PM 41.0 °F 32.8 °F 33.8 °F 76% 29.85 in 10.0 mi West 16.1 mph 24.2 mph N/A   Overcast
12:35 PM 41.0 °F 32.5 °F 33.8 °F 76% 29.85 in 10.0 mi West 17.3 mph - N/A   Overcast
12:55 PM 41.0 °F 32.8 °F 33.8 °F 76% 29.85 in 10.0 mi WNW 16.1 mph 26.5 mph N/A   Overcast
1:15 PM 41.0 °F 33.5 °F 33.8 °F 76% 29.85 in 10.0 mi West 13.8 mph 20.7 mph N/A   Overcast
1:35 PM 41.0 °F 32.5 °F 33.8 °F 76% 29.84 in 10.0 mi West 17.3 mph 23.0 mph N/A   Overcast
1:55 PM 42.8 °F 34.5 °F 33.8 °F 70% 29.84 in 10.0 mi WNW 18.4 mph - N/A   Overcast
2:15 PM 42.8 °F 35.1 °F 33.8 °F 70% 29.84 in 10.0 mi WNW 16.1 mph - N/A   Overcast
2:35 PM 42.8 °F 34.8 °F 33.8 °F 70% 29.84 in 10.0 mi WNW 17.3 mph - N/A   Overcast
2:55 PM 42.8 °F 35.4 °F 33.8 °F 70% 29.84 in 10.0 mi West 15.0 mph 21.9 mph N/A   Overcast
3:15 PM 42.8 °F 35.4 °F 33.8 °F 70% 29.85 in 10.0 mi West 15.0 mph 21.9 mph N/A   Overcast
3:35 PM 42.8 °F 34.8 °F 33.8 °F 70% 29.86 in 10.0 mi WNW 17.3 mph 24.2 mph N/A   Overcast
3:55 PM 42.8 °F 35.4 °F 32.0 °F 66% 29.86 in 10.0 mi WNW 15.0 mph 23.0 mph N/A   Overcast
4:15 PM 42.8 °F 36.2 °F 33.8 °F 70% 29.87 in 10.0 mi WNW 12.7 mph 19.6 mph N/A   Overcast
4:35 PM 44.6 °F 38.8 °F 33.8 °F 66% 29.87 in 10.0 mi WNW 11.5 mph - N/A   Overcast
4:55 PM 42.8 °F 36.2 °F 32.0 °F 66% 29.88 in 10.0 mi WNW 12.7 mph 19.6 mph N/A   Overcast
5:15 PM 42.8 °F 36.6 °F 32.0 °F 66% 29.88 in 10.0 mi WNW 11.5 mph 18.4 mph N/A   Overcast
5:35 PM 42.8 °F 37.0 °F 32.0 °F 66% 29.89 in 10.0 mi WNW 10.4 mph 17.3 mph N/A   Overcast
5:55 PM 42.8 °F 38.6 °F 33.8 °F 70% 29.90 in 10.0 mi WNW 6.9 mph 13.8 mph N/A   Overcast
6:15 PM 42.8 °F 39.3 °F 33.8 °F 70% 29.91 in 10.0 mi NW 5.8 mph - N/A   Overcast
6:35 PM 41.0 °F 36.4 °F 33.8 °F 76% 29.92 in 10.0 mi NW 6.9 mph - N/A   Overcast
6:55 PM 41.0 °F 37.1 °F 33.8 °F 76% 29.92 in 10.0 mi NW 5.8 mph - N/A   Overcast
7:15 PM 41.0 °F 37.1 °F 33.8 °F 76% 29.93 in 10.0 mi NW 5.8 mph - N/A   Overcast
7:35 PM 41.0 °F 38.0 °F 35.6 °F 81% 29.94 in 10.0 mi NW 4.6 mph - N/A   Overcast
7:55 PM 41.0 °F 37.1 °F 33.8 °F 76% 29.95 in 10.0 mi NW 5.8 mph - N/A   Overcast
8:15 PM 41.0 °F 37.1 °F 33.8 °F 76% 29.95 in 10.0 mi NW 5.8 mph - N/A   Overcast
8:35 PM 39.2 °F 35.9 °F 33.8 °F 81% 29.95 in 10.0 mi WNW 4.6 mph - N/A   Overcast
8:55 PM 39.2 °F 35.0 °F 35.6 °F 87% 29.95 in 10.0 mi WNW 5.8 mph - N/A   Mostly Cloudy
9:15 PM 37.4 °F 32.8 °F 33.8 °F 87% 29.96 in 10.0 mi NW 5.8 mph - N/A   Scattered Clouds
9:35 PM 35.6 °F 31.7 °F 33.8 °F 93% 29.96 in 10.0 mi WNW 4.6 mph - N/A   Clear
9:55 PM 35.6 °F 32.8 °F 33.8 °F 93% 29.97 in 10.0 mi West 3.5 mph - N/A   Partly Cloudy
10:15 PM 33.8 °F 28.6 °F 33.8 °F 100% 29.97 in 10.0 mi West 5.8 mph - N/A   Clear
10:35 PM 33.8 °F 27.7 °F 33.8 °F 100% 29.98 in 10.0 mi WNW 6.9 mph - N/A   Clear
10:55 PM 33.8 °F 28.6 °F 33.8 °F 100% 29.98 in 10.0 mi West 5.8 mph - N/A   Clear
11:15 PM 33.8 °F 27.7 °F 33.8 °F 100% 29.98 in 10.0 mi WNW 6.9 mph - N/A   Clear
11:35 PM 33.8 °F 28.6 °F 33.8 °F 100% 29.98 in 10.0 mi WNW 5.8 mph - N/A   Clear
11:55 PM 32.0 °F 26.4 °F 32.0 °F 100% 29.98 in 10.0 mi WNW 5.8 mph - N/A   Clear